Content
SEND FEEDBACK

Daily
Averages
Monthly
Summary
United States of America

UMATAC, GUAM


Home > North America > United States > Guam
Elevation: 58 meters     Latitude: 13 17N     Longitude: 144 40E

WEATHER
 
SELECT A DAY
Number of Records: 356,396;   Date Range: 1/1/95 - 12/17/14
 
SHARE

PRINT THIS DATA

[ ← Previous Day ]
WEATHER ALMANAC - 13 MARCH, 2013
[ Next Day → ]
[ °F ]   °C
Weather ElementAverageHighLow
Temperature25.5 °C29 °C (2:06 pm)22.8 °C (12:55 am)
Dewpoint22.8 °C23.2 °C (2:55 pm)21.8 °C (4:55 am)
Humidity85 %100 % (12:16 am)70 % (2:06 pm)
Barometer1010.2 hPa1011.9 hPa (9:55 am)1008.5 hPa (3:28 pm)
Wind Speed23.8 km/h37 km/h (12:33 am)
Wind Gust44.4 km/h (12:37 am)
Weather ElementAverage
Visibility14.5 km
Wind DirectionENE (55.7 °)

Weather ElementTotal
Precipitation---
Cooling Degree Days7.6 (Base 18.3)
Growing Degree Days15.9 (Base 10)
Averaged from 110 records on 13 March, 2013
WEATHER CONDITIONS BREAKOUT
WIND DIRECTION BREAKOUT
WEATHER BY HOUR - 13 MARCH, 2013
[ °F ]   °C
Local TimeTemperatureDewpointHumidityBarometerVisibilityWind DirectionWind SpeedGust SpeedPrecipitationEventsConditions
12:14 AM23 °C22 °C94 %1011.2 hPa16.1 kmNE (50°)9.3 km/hMostly Cloudy
12:16 AM23 °C23 °C100 %1011.2 hPa16.1 kmNE (40°)7.4 km/hMostly Cloudy
12:32 AM23 °C23 °C100 %1011.2 hPa8 kmENE (70°)33.3 km/hRainHeavy Rain
12:33 AM23 °C23 °C100 %1010.8 hPa6.4 kmEast (80°)37 km/hRainHeavy Rain
12:35 AM23 °C22 °C94 %1010.8 hPa4.8 kmEast (80°)35.2 km/hRainRain
12:37 AM23 °C22 °C94 %1010.8 hPa4 kmEast (80°)35.2 km/h44.4 km/hRainRain
12:38 AM23 °C22 °C94 %1010.8 hPa4 kmEast (90°)33.3 km/h44.4 km/hRainRain
12:39 AM23 °C22 °C94 %1010.8 hPa3.2 kmEast (90°)27.8 km/h44.4 km/hRainRain
12:40 AM23 °C22 °C94 %1010.8 hPa3.2 kmEast (80°)24.1 km/h44.4 km/hRainLight Rain
12:42 AM23 °C22 °C94 %1010.8 hPa4 kmEast (80°)27.8 km/h44.4 km/hRainLight Rain
12:46 AM23 °C22 °C94 %1010.8 hPa4 kmEast (80°)31.5 km/h44.4 km/hRainLight Rain
12:48 AM23 °C22 °C94 %1010.8 hPa4.8 kmEast (80°)27.8 km/hRainLight Rain
12:53 AM23 °C22 °C94 %1010.8 hPa4.8 kmEast (80°)29.6 km/h40.7 km/hLight Drizzle
12:55 AM22.8 °C22.1 °C96 %1010.8 hPa6.4 kmEast (80°)24.1 km/h40.7 km/h0 mmRainLight Rain
12:57 AM23 °C22 °C94 %1010.8 hPa6.4 kmEast (90°)24.1 km/h40.7 km/hRainLight Rain
1:02 AM23 °C22 °C94 %1010.8 hPa8 kmENE (70°)24.1 km/hRainLight Rain
1:05 AM23 °C22 °C94 %1010.8 hPa8 kmENE (60°)22.2 km/hRainLight Rain
1:08 AM23 °C22 °C94 %1010.8 hPa9.7 kmENE (60°)20.4 km/hLight Drizzle
1:26 AM23 °C22 °C94 %1010.5 hPa16.1 kmNE (40°)16.7 km/hLight Drizzle
1:28 AM23 °C22 °C94 %1010.5 hPa16.1 kmNE (40°)16.7 km/hMostly Cloudy
1:52 AM24 °C23 °C94 %1010.2 hPa16.1 kmENE (60°)14.8 km/hMostly Cloudy
1:55 AM23.7 °C22.7 °C94 %1010.2 hPa16.1 kmENE (60°)25.9 km/h0 mmMostly Cloudy
2:13 AM24 °C22 °C89 %1009.8 hPa16.1 kmENE (60°)20.4 km/hMostly Cloudy
2:23 AM24 °C23 °C94 %1009.8 hPa14.5 kmENE (70°)24.1 km/hRainLight Rain
2:25 AM24 °C22 °C89 %1009.8 hPa14.5 kmENE (70°)22.2 km/hRainLight Rain
2:31 AM24 °C22 °C89 %1009.8 hPa14.5 kmENE (60°)18.5 km/hMostly Cloudy
2:32 AM24 °C22 °C89 %1009.8 hPa16.1 kmENE (70°)16.7 km/hMostly Cloudy
2:55 AM24.2 °C22.2 °C89 %1009.5 hPa16.1 kmNE (50°)24.1 km/h0 mmMostly Cloudy
3:55 AM24.1 °C22.8 °C92 %1009.5 hPa16.1 kmNE (50°)18.5 km/hPartly Cloudy
4:55 AM24 °C21.8 °C87 %1009.5 hPa16.1 kmENE (60°)22.2 km/hClear
5:55 AM24.3 °C22.8 °C91 %1009.8 hPa16.1 kmENE (60°)22.2 km/hPartly Cloudy
6:14 AM24 °C23 °C94 %1009.8 hPa16.1 kmENE (60°)24.1 km/hMostly Cloudy
6:16 AM24 °C23 °C94 %1009.8 hPa16.1 kmENE (60°)22.2 km/hScattered Clouds
6:55 AM24.3 °C22.6 °C90 %1010.5 hPa16.1 kmENE (60°)20.4 km/hPartly Cloudy
7:16 AM25 °C23 °C89 %1010.5 hPa16.1 kmENE (60°)20.4 km/hMostly Cloudy
7:20 AM25 °C23 °C89 %1010.8 hPa16.1 kmNE (50°)22.2 km/hMostly Cloudy
7:49 AM25 °C23 °C89 %1010.8 hPa16.1 kmENE (60°)24.1 km/hScattered Clouds
7:55 AM25.5 °C22.8 °C85 %1010.8 hPa16.1 kmENE (60°)24.1 km/hScattered Clouds
8:47 AM27 °C23 °C79 %1011.2 hPa16.1 kmENE (60°)25.9 km/hMostly Cloudy
8:52 AM27 °C23 °C79 %1011.2 hPa16.1 kmENE (60°)25.9 km/hScattered Clouds
8:55 AM26.8 °C22.8 °C79 %1011.2 hPa16.1 kmENE (70°)24.1 km/hScattered Clouds
9:00 AM27 °C23 °C79 %1011.2 hPa16.1 kmENE (70°)25.9 km/hMostly Cloudy
9:09 AM27 °C23 °C79 %1011.2 hPa16.1 kmENE (70°)22.2 km/hMostly Cloudy
9:13 AM27 °C23 °C79 %1011.2 hPa16.1 kmENE (60°)22.2 km/hScattered Clouds
9:39 AM27 °C23 °C79 %1011.5 hPa16.1 kmNE (50°)24.1 km/hMostly Cloudy
9:55 AM27.3 °C22.7 °C76 %1011.9 hPa16.1 kmNE (50°)27.8 km/hMostly Cloudy
10:00 AM27 °C23 °C79 %1011.9 hPa16.1 kmNE (40°)29.6 km/hMostly Cloudy
10:19 AM27 °C23 °C79 %1011.9 hPa16.1 kmNNE (30°)27.8 km/hMostly Cloudy
10:55 AM28.2 °C22.8 °C72 %1011.5 hPa16.1 kmNE (40°)25.9 km/hMostly Cloudy
11:55 AM28.8 °C23.1 °C71 %1011.2 hPa16.1 kmENE (60°)27.8 km/hPartly Cloudy
12:55 PM28.3 °C22.9 °C72 %1010.2 hPa16.1 kmNE (40°)27.8 km/hScattered Clouds
1:55 PM28.5 °C23.1 °C72 %1009.5 hPa16.1 kmNE (40°)25.9 km/hMostly Cloudy
2:06 PM29 °C23 °C70 %1009.5 hPa16.1 kmNE (50°)27.8 km/hScattered Clouds
2:35 PM28 °C23 °C74 %1008.8 hPa16.1 kmNNE (30°)27.8 km/hMostly Cloudy
2:44 PM28 °C23 °C74 %1008.8 hPa16.1 kmNE (50°)24.1 km/hMostly Cloudy
2:51 PM29 °C23 °C70 %1008.8 hPa16.1 kmNE (40°)27.8 km/hMostly Cloudy
2:55 PM28.3 °C23.2 °C74 %1008.8 hPa16.1 kmNNE (30°)29.6 km/hMostly Cloudy
3:00 PM28 °C23 °C74 %1008.8 hPa16.1 kmNE (40°)25.9 km/hScattered Clouds
3:28 PM28 °C23 °C74 %1008.5 hPa16.1 kmNE (40°)27.8 km/hMostly Cloudy
3:35 PM28 °C23 °C74 %1008.5 hPa16.1 kmNE (40°)27.8 km/hMostly Cloudy
3:52 PM28 °C23 °C74 %1008.5 hPa16.1 kmNE (40°)27.8 km/hMostly Cloudy
3:55 PM27.9 °C23 °C75 %1008.5 hPa16.1 kmNE (40°)27.8 km/hMostly Cloudy
4:28 PM27 °C23 °C79 %1008.5 hPa16.1 kmNE (50°)27.8 km/hScattered Clouds
4:32 PM27 °C23 °C79 %1008.5 hPa16.1 kmENE (60°)25.9 km/hMostly Cloudy
4:39 PM27 °C23 °C79 %1008.8 hPa16.1 kmNE (40°)29.6 km/hMostly Cloudy
4:42 PM27 °C23 °C79 %1008.8 hPa16.1 kmNE (50°)25.9 km/hMostly Cloudy
4:45 PM27 °C23 °C79 %1008.8 hPa16.1 kmNE (50°)22.2 km/hScattered Clouds
4:52 PM27 °C23 °C79 %1008.8 hPa16.1 kmNE (50°)22.2 km/hMostly Cloudy
4:55 PM27.2 °C23 °C78 %1008.8 hPa16.1 kmNE (40°)24.1 km/hMostly Cloudy
5:12 PM27 °C23 °C79 %1009.1 hPa16.1 kmENE (60°)29.6 km/hMostly Cloudy
5:14 PM27 °C23 °C79 %1009.1 hPa16.1 kmENE (60°)27.8 km/hMostly Cloudy
5:15 PM27 °C23 °C79 %1009.1 hPa16.1 kmENE (60°)25.9 km/hMostly Cloudy
5:25 PM27 °C23 °C79 %1009.1 hPa16.1 kmNE (50°)24.1 km/hMostly Cloudy
5:29 PM26 °C23 °C83 %1009.1 hPa16.1 kmNE (50°)24.1 km/hScattered Clouds
5:55 PM26.3 °C23 °C82 %1009.5 hPa16.1 kmNE (40°)20.4 km/hScattered Clouds
6:00 PM26 °C23 °C83 %1009.5 hPa16.1 kmNE (50°)24.1 km/hMostly Cloudy
6:02 PM26 °C23 °C83 %1009.5 hPa16.1 kmNE (40°)25.9 km/hScattered Clouds
6:12 PM26 °C23 °C83 %1009.5 hPa16.1 kmNE (40°)24.1 km/hMostly Cloudy
6:15 PM26 °C23 °C83 %1009.5 hPa16.1 kmNE (50°)25.9 km/hScattered Clouds
6:17 PM26 °C23 °C83 %1009.5 hPa16.1 kmNE (50°)22.2 km/hMostly Cloudy
6:23 PM26 °C23 °C83 %1009.8 hPa16.1 kmNE (50°)22.2 km/hMostly Cloudy
6:25 PM26 °C23 °C83 %1009.8 hPa16.1 kmNE (50°)22.2 km/hMostly Cloudy
6:29 PM26 °C23 °C83 %1009.8 hPa16.1 kmNE (50°)22.2 km/hScattered Clouds
6:30 PM26 °C23 °C83 %1009.5 hPa16.1 kmNE (50°)22.2 km/hMostly Cloudy
6:33 PM26 °C23 °C83 %1009.8 hPa16.1 kmNE (40°)22.2 km/hScattered Clouds
6:46 PM26 °C23 °C83 %1009.8 hPa16.1 kmNE (50°)16.7 km/hMostly Cloudy
6:48 PM26 °C23 °C83 %1009.8 hPa16.1 kmNE (50°)22.2 km/hScattered Clouds
6:49 PM26 °C23 °C83 %1009.8 hPa16.1 kmNE (50°)20.4 km/hMostly Cloudy
6:51 PM26 °C23 °C83 %1009.8 hPa16.1 kmNE (50°)18.5 km/hScattered Clouds
6:52 PM26 °C23 °C83 %1009.8 hPa16.1 kmENE (60°)16.7 km/hMostly Cloudy
6:55 PM25.7 °C23.1 °C85 %1009.8 hPa16.1 kmNE (50°)22.2 km/hMostly Cloudy
7:07 PM26 °C23 °C83 %1010.2 hPa16.1 kmNE (50°)22.2 km/hMostly Cloudy
7:15 PM26 °C23 °C83 %1010.2 hPa16.1 kmNE (50°)22.2 km/hMostly Cloudy
7:17 PM26 °C23 °C83 %1010.2 hPa16.1 kmENE (60°)22.2 km/hMostly Cloudy
7:30 PM25 °C23 °C89 %1010.5 hPa16.1 kmENE (60°)20.4 km/hMostly Cloudy
7:43 PM25 °C23 °C89 %1010.5 hPa16.1 kmENE (60°)18.5 km/hMostly Cloudy
7:55 PM25.3 °C22.9 °C86 %1010.5 hPa16.1 kmENE (60°)20.4 km/hMostly Cloudy
8:05 PM25 °C23 °C89 %1010.5 hPa16.1 kmENE (60°)22.2 km/hMostly Cloudy
8:11 PM25 °C23 °C89 %1010.8 hPa16.1 kmENE (60°)20.4 km/hScattered Clouds
8:12 PM25 °C23 °C89 %1010.8 hPa16.1 kmENE (60°)22.2 km/hMostly Cloudy
8:15 PM25 °C23 °C89 %1010.8 hPa16.1 kmENE (60°)22.2 km/hScattered Clouds
8:27 PM25 °C23 °C89 %1010.8 hPa16.1 kmNE (50°)18.5 km/hMostly Cloudy
8:31 PM25 °C23 °C89 %1010.8 hPa16.1 kmNE (50°)20.4 km/hScattered Clouds
8:55 PM25.4 °C22.8 °C85 %1011.2 hPa16.1 kmNE (50°)22.2 km/hMostly Cloudy
9:44 PM25 °C23 °C89 %1011.5 hPa16.1 kmENE (60°)20.4 km/hMostly Cloudy
9:50 PM25 °C23 °C89 %1011.5 hPa16.1 kmENE (60°)22.2 km/hMostly Cloudy
10:55 PM25.4 °C22.9 °C86 %1011.5 hPa16.1 kmNE (50°)20.4 km/hScattered Clouds
11:14 PM25 °C23 °C89 %1011.5 hPa16.1 kmNE (50°)22.2 km/hMostly Cloudy
11:20 PM25 °C22 °C83 %1011.5 hPa16.1 kmNE (50°)24.1 km/hScattered Clouds
11:55 PM24.9 °C22.5 °C86 %1011.2 hPa16.1 kmNE (50°)16.7 km/hClear
Hourly data recorded from PGUA, located 0 kilometers away from Umatac, Guam







STORIES FROM OUR PARTNERS